HST

Last updated on Mon Sep 21 2026 00:02:08 GMT+0000 (Coordinated Universal Time)

1 20580U 90037B 26263.36364071 .00004652 00000+0 14024-3 0 9993 2 20580 28.4728 149.5930 0001875 116.6017 243.4771 15.31701831803179
UTC large
Height (km)
Speed (km/s)
/
Latitude / Longitude
Inclination (degrees)
Orbital Period (minutes)
Azimuth
Elevation
Range (km)
Doppler Factor

Next 0 passes for location: London (51.5072 / 0.1276)

No passes found over London.
HST